FW9481 Weather Reports


Display with metric or nautical units.
time (UTC)temp
F
wind
direction
speed
MPH
gust
MPH
rain 1hr
in
rain 24hr
in
rain mn
in
humidity
%
barometer
mb
20260508205847 68 35 1.0 3.0 0.00 0.00 0.00 52 1008.6
20260508205343 68 36 0.0 2.0 0.00 0.00 0.00 53 1008.8
20260508204839 68 0 0.0 4.0 0.00 0.00 0.00 52 1008.8
20260508204337 68 26 1.0 2.0 0.00 0.00 0.00 49 1008.9
20260508203832 68 101 0.0 4.0 0.00 0.00 0.00 49 1009.2
20260508203329 68 161 2.0 9.0 0.00 0.00 0.00 49 1009.0
20260508202824 69 0 0.0 2.0 0.00 0.00 0.00 51 1009.1
20260508202322 69 74 0.0 3.0 0.00 0.00 0.00 50 1009.1
20260508201820 68 59 2.0 3.0 0.00 0.00 0.00 51 1009.3
20260508201317 68 90 0.0 3.0 0.00 0.00 0.00 49 1009.2
20260508200813 68 213 2.0 3.0 0.00 0.00 0.00 49 1009.3
20260508200309 68 66 1.0 4.0 0.00 0.00 0.00 48 1009.2
20260508195805 68 36 0.0 4.0 0.00 0.00 0.00 49 1009.2
20260508195305 68 225 2.0 5.0 0.00 0.00 0.00 47 1009.5
20260508194758 69 54 1.0 4.0 0.00 0.00 0.00 48 1009.4
20260508194256 71 106 0.0 2.0 0.00 0.00 0.00 50 1009.4
20260508193753 71 90 0.0 4.0 0.00 0.00 0.00 49 1009.3
20260508193249 72 10 2.0 5.0 0.00 0.00 0.00 53 1009.3
20260508192745 72 346 0.0 5.0 0.00 0.00 0.00 50 1009.6
20260508192243 72 49 3.0 3.0 0.00 0.00 0.00 50 1009.4
20260508191740 72 71 1.0 5.0 0.00 0.00 0.00 50 1009.6
20260508191237 72 41 2.0 3.0 0.00 0.00 0.00 49 1009.5
20260508190734 70 60 0.0 4.0 0.00 0.00 0.00 49 1009.9
20260508190230 70 12 0.0 7.0 0.00 0.00 0.00 48 1010.2
20260508185727 71 112 4.0 4.0 0.00 0.00 0.00 49 1010.2
20260508185224 71 98 0.0 5.0 0.00 0.00 0.00 47 1010.3
20260508184721 72 22 4.0 5.0 0.00 0.00 0.00 47 1010.2
20260508184218 73 191 2.0 4.0 0.00 0.00 0.00 52 1010.2
20260508183715 71 188 0.0 4.0 0.00 0.00 0.00 45 1010.3
20260508183211 71 0 0.0 3.0 0.00 0.00 0.00 49 1010.2
20260508182707 72 77 1.0 4.0 0.00 0.00 0.00 50 1010.4
20260508182204 70 59 3.0 5.0 0.00 0.00 0.00 52 1010.4
20260508181700 70 166 2.0 5.0 0.00 0.00 0.00 48 1010.6
20260508181157 71 90 1.0 5.0 0.00 0.00 0.00 54 1010.6
20260508180654 70 354 1.0 4.0 0.00 0.00 0.00 46 1010.6
20260508180151 72 204 2.0 4.0 0.00 0.00 0.00 50 1010.8
20260508175647 69 345 0.0 5.0 0.00 0.00 0.00 51 1010.7
20260508175144 68 7 1.0 5.0 0.00 0.00 0.00 51 1010.9
20260508174642 68 115 0.0 4.0 0.00 0.00 0.00 50 1011.0
20260508174138 67 42 3.0 3.0 0.00 0.00 0.00 51 1011.1
20260508173635 68 29 2.0 3.0 0.00 0.00 0.00 53 1011.2
20260508173131 68 70 3.0 4.0 0.00 0.00 0.00 51 1011.5
20260508172629 69 61 3.0 4.0 0.00 0.00 0.00 54 1011.4
20260508172125 69 208 7.0 7.0 0.00 0.00 0.00 48 1011.6
20260508171622 70 53 2.0 5.0 0.00 0.00 0.00 51 1011.5
20260508171118 71 69 1.0 6.0 0.00 0.00 0.00 52 1011.6
20260508170616 71 40 3.0 4.0 0.00 0.00 0.00 51 1011.5
20260508170113 71 96 2.0 4.0 0.00 0.00 0.00 54 1011.8
20260508165610 72 162 1.0 5.0 0.00 0.00 0.00 50 1012.0
20260508165107 72 270 2.0 5.0 0.00 0.00 0.00 51 1011.9
20260508164603 72 48 2.0 9.0 0.00 0.00 0.00 56 1012.3
20260508164100 72 73 2.0 5.0 0.00 0.00 0.00 53 1012.1
20260508163557 71 45 3.0 3.0 0.00 0.00 0.00 54 1012.4
20260508163054 70 228 2.0 5.0 0.00 0.00 0.00 51 1012.1
20260508162551 70 194 5.0 9.0 0.00 0.00 0.00 50 1012.3
20260508162048 72 46 5.0 5.0 0.00 0.00 0.00 49 1012.4
20260508161545 72 42 3.0 3.0 0.00 0.00 0.00 54 1012.5
20260508161042 72 90 1.0 3.0 0.00 0.00 0.00 53 1012.6
20260508160540 70 82 2.0 3.0 0.00 0.00 0.00 53 1012.6
20260508160037 70 52 4.0 6.0 0.00 0.00 0.00 55 1012.7
20260508155534 69 70 2.0 6.0 0.00 0.00 0.00 52 1012.9
20260508155031 70 34 0.0 5.0 0.00 0.00 0.00 54 1012.9
20260508154528 69 52 3.0 5.0 0.00 0.00 0.00 55 1012.8
20260508154025 71 145 1.0 3.0 0.00 0.00 0.00 50 1012.9
20260508153522 69 82 1.0 5.0 0.00 0.00 0.00 52 1013.0
20260508153018 69 134 0.0 6.0 0.00 0.00 0.00 55 1013.2
20260508152516 69 94 0.0 5.0 0.00 0.00 0.00 59 1013.1
20260508152011 70 195 0.0 4.0 0.00 0.00 0.00 51 1013.0
20260508151508 68 110 0.0 5.0 0.00 0.00 0.00 55 1012.9
20260508151004 68 50 5.0 5.0 0.00 0.00 0.00 50 1013.3
20260508150502 68 135 3.0 8.0 0.00 0.00 0.00 53 1013.0
20260508145957 68 63 3.0 5.0 0.00 0.00 0.00 55 1013.2
20260508145454 68 71 0.0 5.0 0.00 0.00 0.00 55 1013.1
20260508144950 69 97 3.0 3.0 0.00 0.00 0.00 55 1013.4
20260508144448 68 28 2.0 6.0 0.00 0.00 0.00 53 1013.3
20260508143945 68 77 2.0 4.0 0.00 0.00 0.00 55 1013.4
20260508143443 68 90 1.0 5.0 0.00 0.00 0.00 53 1013.5
20260508142939 68 90 0.0 5.0 0.00 0.00 0.00 54 1013.4
20260508142436 68 76 3.0 4.0 0.00 0.00 0.00 53 1013.5
20260508141932 68 98 0.0 5.0 0.00 0.00 0.00 55 1013.6
20260508141429 68 48 0.0 4.0 0.00 0.00 0.00 56 1013.6
20260508140927 65 289 0.0 6.0 0.00 0.00 0.00 60 1013.7
20260508140424 66 0 0.0 4.0 0.00 0.00 0.00 55 1013.7
20260508135919 64 212 0.0 4.0 0.00 0.00 0.00 56 1013.7
20260508135416 64 103 0.0 2.0 0.00 0.00 0.00 62 1013.8
20260508134913 61 74 0.0 2.0 0.00 0.00 0.00 62 1014.0
20260508134409 60 201 0.0 3.0 0.00 0.00 0.00 63 1013.7
20260508133906 59 60 0.0 2.0 0.00 0.00 0.00 67 1013.7
20260508133404 57 180 0.0 6.0 0.00 0.00 0.00 66 1013.8
20260508132900 59 236 0.0 5.0 0.00 0.00 0.00 61 1013.8
20260508132359 59 212 0.0 5.0 0.00 0.00 0.00 63 1014.0
20260508131855 60 15 0.0 3.0 0.00 0.00 0.00 64 1014.0
20260508131350 60 18 0.0 5.0 0.00 0.00 0.00 62 1013.7
20260508130847 64 353 0.0 3.0 0.00 0.00 0.00 61 1013.8
20260508130344 60 184 0.0 4.0 0.00 0.00 0.00 59 1013.7
20260508125840 63 90 1.0 2.0 0.00 0.00 0.00 57 1013.6
20260508125336 62 257 0.0 4.0 0.00 0.00 0.00 57 1013.8
20260508124834 60 215 0.0 6.0 0.00 0.00 0.00 62 1013.7
20260508124331 62 194 0.0 3.0 0.00 0.00 0.00 58 1013.7
20260508123829 60 297 2.0 2.0 0.00 0.00 0.00 62 1013.7
20260508123328 58 180 0.0 2.0 0.00 0.00 0.00 65 1013.8
20260508122824 56 212 0.0 5.0 0.00 0.00 0.00 64 1013.6
20260508122320 57 84 0.0 4.0 0.00 0.00 0.00 67 1013.6
20260508121818 57 190 0.0 3.0 0.00 0.00 0.00 64 1013.7
20260508121316 56 82 0.0 2.0 0.00 0.00 0.00 66 1013.8
20260508120813 55 75 2.0 3.0 0.00 0.00 0.00 70 1013.9
20260508120311 54 150 0.0 2.0 0.00 0.00 0.00 70 1013.6
20260508115808 51 172 0.0 3.0 0.00 0.00 0.00 73 1013.7
20260508115306 49 98 0.0 3.0 0.00 0.00 0.00 78 1013.6
20260508114802 48 196 0.0 3.0 0.00 0.00 0.00 77 1013.5
20260508114259 48 74 0.0 3.0 0.00 0.00 0.00 78 1013.5
20260508113755 48 69 0.0 2.0 0.00 0.00 0.00 78 1013.5
20260508113254 48 82 2.0 2.0 0.00 0.00 0.00 78 1013.4
20260508112750 48 82 0.0 5.0 0.00 0.00 0.00 78 1013.3
20260508112247 48 26 1.0 3.0 0.00 0.00 0.00 79 1013.4
20260508111743 47 198 2.0 4.0 0.00 0.00 0.00 79 1013.3
20260508111241 47 192 1.0 5.0 0.00 0.00 0.00 80 1013.2
20260508110738 47 177 3.0 3.0 0.00 0.00 0.00 82 1013.1
20260508110235 46 188 2.0 3.0 0.00 0.00 0.00 85 1013.2
20260508105730 44 190 3.0 3.0 0.00 0.00 0.00 90 1013.2
20260508105227 43 188 0.0 2.0 0.00 0.00 0.00 98 1013.1
20260508104724 43 165 0.0 0.0 0.00 0.00 0.00 99 1013.2
20260508104221 42 165 0.0 0.0 0.00 0.00 0.00 99 1013.1
20260508103719 42 165 0.0 0.0 0.00 0.00 0.00 99 1013.1
20260508103215 42 180 0.0 0.0 0.00 0.00 0.00 99 1013.1
20260508102712 42 180 0.0 1.0 0.00 0.00 0.00 99 1013.1
20260508102210 42 74 0.0 0.0 0.00 0.00 0.00 99 1013.3
20260508101707 42 74 0.0 0.0 0.00 0.00 0.00 99 1013.3
20260508101205 42 82 0.0 1.0 0.00 0.00 0.00 99 1013.3
20260508100702 42 29 0.0 1.0 0.00 0.00 0.00 99 1013.3
20260508100200 42 140 0.0 0.0 0.00 0.00 0.00 99 1013.3
20260508095656 41 140 0.0 0.0 0.00 0.00 0.00 99 1013.0
20260508095154 41 140 0.0 1.0 0.00 0.00 0.00 99 1013.4
20260508094650 41 57 0.0 0.0 0.00 0.00 0.00 99 1013.4
20260508094147 41 36 0.0 2.0 0.00 0.00 0.00 99 1013.4
20260508093644 41 66 1.0 1.0 0.00 0.00 0.00 99 1013.4
20260508093142 41 54 0.0 0.0 0.00 0.00 0.00 99 1013.4
20260508092639 41 35 1.0 3.0 0.00 0.00 0.00 99 1013.1
20260508092138 41 34 2.0 3.0 0.00 0.00 0.00 99 1013.3
20260508091634 41 180 0.0 0.0 0.00 0.00 0.00 99 1013.0
20260508091132 41 164 0.0 2.0 0.00 0.00 0.00 99 1013.3
20260508090630 41 165 0.0 2.0 0.00 0.00 0.00 99 1012.9
20260508090126 40 165 0.0 1.0 0.00 0.00 0.00 99 1013.1
20260508085622 39 166 0.0 1.0 0.00 0.00 0.00 99 1012.9
20260508085120 38 105 0.0 1.0 0.00 0.00 0.00 99 1013.3
20260508084616 39 114 0.0 0.0 0.00 0.00 0.00 99 1013.4
20260508084114 38 126 0.0 1.0 0.00 0.00 0.00 99 1013.3
20260508083611 38 63 0.0 1.0 0.00 0.00 0.00 99 1013.2
20260508083108 38 74 0.0 1.0 0.00 0.00 0.00 99 1013.1
20260508082603 38 35 0.0 1.0 0.00 0.00 0.00 99 1013.0
20260508082101 39 120 0.0 1.0 0.00 0.00 0.00 99 1013.0
20260508081558 39 135 0.0 2.0 0.00 0.00 0.00 99 1013.1
20260508081054 39 123 0.0 0.0 0.00 0.00 0.00 99 1013.1
20260508080552 39 157 0.0 1.0 0.00 0.00 0.00 99 1013.2
20260508080050 39 126 0.0 1.0 0.00 0.00 0.00 99 1013.0
20260508075546 38 114 0.0 1.0 0.00 0.00 0.00 98 1013.2
20260508075043 39 90 0.0 1.0 0.00 0.00 0.00 98 1013.0
20260508074541 39 75 0.0 1.0 0.00 0.00 0.00 98 1012.9
20260508074037 39 111 0.0 1.0 0.00 0.00 0.00 97 1013.0
20260508073535 39 90 0.0 1.0 0.00 0.00 0.00 97 1013.1
20260508073032 39 82 0.0 1.0 0.00 0.00 0.00 97 1013.2
20260508072528 40 98 0.0 2.0 0.00 0.00 0.00 97 1013.2
20260508072025 40 45 2.0 2.0 0.00 0.00 0.00 97 1013.2
20260508071523 40 157 0.0 1.0 0.00 0.00 0.00 97 1013.1
20260508071020 41 180 0.0 0.0 0.00 0.00 0.00 97 1013.0
20260508070518 40 180 0.0 1.0 0.00 0.00 0.00 96 1013.0
20260508070016 40 180 0.0 0.0 0.00 0.00 0.00 96 1013.2
20260508065514 40 180 0.0 0.0 0.00 0.00 0.00 96 1013.4
20260508065012 41 180 0.0 0.0 0.00 0.00 0.00 95 1013.4
20260508064509 41 180 0.0 1.0 0.00 0.00 0.00 95 1013.5
20260508064007 41 60 0.0 0.0 0.00 0.00 0.00 94 1013.5
20260508063504 41 60 0.0 0.0 0.00 0.00 0.00 93 1013.5
20260508063002 41 66 0.0 1.0 0.00 0.00 0.00 92 1013.7
20260508062459 41 63 0.0 0.0 0.00 0.00 0.00 91 1013.7
20260508061955 41 32 1.0 2.0 0.00 0.00 0.00 91 1013.6
20260508061454 42 111 0.0 1.0 0.00 0.00 0.00 92 1013.6
20260508060949 42 90 0.0 2.0 0.00 0.00 0.00 91 1013.6
20260508060447 42 114 0.0 1.0 0.00 0.00 0.00 91 1013.7
20260508055943 42 164 0.0 2.0 0.00 0.00 0.00 90 1013.5
20260508055440 42 187 0.0 1.0 0.00 0.00 0.00 90 1013.7
20260508054936 42 180 0.0 1.0 0.00 0.00 0.00 89 1013.7
20260508054433 42 154 0.0 1.0 0.00 0.00 0.00 89 1013.8
20260508053930 42 166 0.0 1.0 0.00 0.00 0.00 89 1013.6
20260508053427 42 114 0.0 0.0 0.00 0.00 0.00 88 1013.6
20260508052925 43 74 0.0 0.0 0.00 0.00 0.00 88 1013.7
20260508052422 43 74 0.0 0.0 0.00 0.00 0.00 86 1013.5
20260508051919 43 74 0.0 0.0 0.00 0.00 0.00 85 1013.7
20260508051414 43 74 0.0 0.0 0.00 0.00 0.00 82 1013.5
20260508050910 44 74 0.0 1.0 0.00 0.00 0.00 81 1013.6
20260508050407 45 157 0.0 1.0 0.00 0.00 0.00 81 1013.7
20260508045903 45 98 0.0 1.0 0.00 0.00 0.00 79 1013.7
20260508045401 45 106 0.0 0.0 0.00 0.00 0.00 80 1013.7
20260508044859 45 165 0.0 0.0 0.00 0.00 0.00 79 1013.4
20260508044355 46 151 0.0 1.0 0.00 0.00 0.00 78 1013.6
20260508043851 46 117 0.0 1.0 0.00 0.00 0.00 77 1013.5
20260508043348 46 165 0.0 2.0 0.00 0.00 0.00 78 1013.3
20260508042845 46 145 0.0 1.0 0.00 0.00 0.00 80 1013.4
20260508042343 46 74 0.0 1.0 0.00 0.00 0.00 74 1013.7
20260508041839 47 194 0.0 0.0 0.00 0.00 0.00 74 1013.6
20260508041335 47 188 0.0 1.0 0.00 0.00 0.00 76 1013.4
20260508040832 46 173 0.0 2.0 0.00 0.00 0.00 77 1013.3
20260508040330 46 203 0.0 0.0 0.00 0.00 0.00 78 1013.4
20260508035827 46 180 0.0 1.0 0.00 0.00 0.00 77 1013.5
20260508035324 47 174 0.0 1.0 0.00 0.00 0.00 76 1013.2
20260508034821 46 71 0.0 1.0 0.00 0.00 0.00 78 1013.5
20260508034318 46 157 0.0 1.0 0.00 0.00 0.00 77 1013.4
20260508033815 47 175 0.0 2.0 0.00 0.00 0.00 78 1013.4
20260508033313 47 154 0.0 1.0 0.00 0.00 0.00 75 1013.4
20260508032810 47 99 0.0 1.0 0.00 0.00 0.00 73 1013.6
20260508032308 47 99 0.0 0.0 0.00 0.00 0.00 73 1013.5
20260508031804 47 180 0.0 1.0 0.00 0.00 0.00 74 1013.4
20260508031301 47 206 0.0 2.0 0.00 0.00 0.00 78 1013.3
20260508030757 46 184 2.0 2.0 0.00 0.00 0.00 79 1013.3
20260508030255 46 180 2.0 2.0 0.00 0.00 0.00 80 1013.4
20260508025751 46 126 0.0 1.0 0.00 0.00 0.00 79 1013.5
20260508025248 46 180 1.0 2.0 0.00 0.00 0.00 81 1013.2
20260508024744 46 66 0.0 1.0 0.00 0.00 0.00 81 1013.6
20260508024241 46 157 1.0 2.0 0.00 0.00 0.00 82 1013.5
20260508023738 45 69 0.0 2.0 0.00 0.00 0.00 82 1013.5
20260508023236 46 148 0.0 2.0 0.00 0.00 0.00 82 1013.2
20260508022731 46 165 0.0 2.0 0.00 0.00 0.00 82 1013.3
20260508022228 46 180 1.0 2.0 0.00 0.00 0.00 81 1013.6
20260508021725 46 166 0.0 1.0 0.00 0.00 0.00 79 1013.4
20260508021220 46 82 0.0 1.0 0.00 0.00 0.00 79 1013.2
20260508020718 46 180 0.0 2.0 0.00 0.00 0.00 81 1013.1
20260508020215 46 195 0.0 3.0 0.00 0.00 0.00 80 1013.1
20260508015712 47 180 0.0 2.0 0.00 0.00 0.00 79 1013.2
20260508015209 47 200 1.0 2.0 0.00 0.00 0.00 78 1013.3
20260508014705 47 194 2.0 2.0 0.00 0.00 0.00 78 1013.2
20260508014202 47 180 0.0 3.0 0.00 0.00 0.00 78 1013.2
20260508013658 47 172 0.0 2.0 0.00 0.00 0.00 79 1013.4
20260508013155 48 172 0.0 1.0 0.00 0.00 0.00 80 1013.4
20260508012652 48 151 0.0 2.0 0.00 0.00 0.00 77 1013.3
20260508012149 48 188 0.0 2.0 0.00 0.00 0.00 75 1013.3
20260508011648 48 172 0.0 2.0 0.00 0.00 0.00 74 1013.2
20260508011145 49 162 1.0 2.0 0.00 0.00 0.00 74 1013.2
20260508010641 49 157 0.0 1.0 0.00 0.00 0.00 74 1013.2
20260508010139 50 166 0.0 1.0 0.00 0.00 0.00 71 1013.1
20260508005636 50 168 0.0 2.0 0.00 0.00 0.00 70 1013.0
20260508005133 51 160 0.0 2.0 0.00 0.00 0.00 67 1013.1
20260508004628 51 173 0.0 2.0 0.00 0.00 0.00 68 1013.1
20260508004125 52 165 0.0 1.0 0.00 0.00 0.00 68 1013.0
20260508003621 53 175 1.0 1.0 0.00 0.00 0.00 65 1013.0
20260508003119 53 57 0.0 2.0 0.00 0.00 0.00 60 1013.1
20260508002615 54 74 0.0 1.0 0.00 0.00 0.00 57 1012.8
20260508002113 54 82 1.0 2.0 0.00 0.00 0.00 56 1013.0
20260508001608 54 66 1.0 1.0 0.00 0.00 0.00 55 1012.8
20260508001105 55 69 1.0 2.0 0.00 0.00 0.00 54 1013.0
20260508000600 55 90 0.0 2.0 0.00 0.00 0.00 55 1012.9
20260508000058 55 75 0.0 3.0 0.00 0.00 0.00 54 1013.0
20260507235555 56 85 0.0 2.0 0.00 0.00 0.00 54 1012.8
20260507235052 56 54 1.0 2.0 0.00 0.00 0.00 52 1013.0
20260507234548 57 90 1.0 3.0 0.00 0.00 0.00 52 1012.9
20260507234045 56 49 2.0 2.0 0.00 0.00 0.00 55 1012.8
20260507233542 57 81 0.0 3.0 0.00 0.00 0.00 53 1012.7
20260507233041 57 145 0.0 2.0 0.00 0.00 0.00 53 1012.7
20260507232536 57 81 0.0 2.0 0.00 0.00 0.00 52 1012.8
20260507232034 58 66 0.0 3.0 0.00 0.00 0.00 51 1012.4
20260507231530 58 106 1.0 3.0 0.00 0.00 0.00 52 1012.6
20260507231028 58 84 0.0 2.0 0.00 0.00 0.00 51 1012.6
20260507230524 58 82 0.0 2.0 0.00 0.00 0.00 51 1012.8
20260507230021 58 90 0.0 1.0 0.00 0.00 0.00 50 1012.7
20260507225515 58 29 0.0 1.0 0.00 0.00 0.00 51 1012.8
20260507225012 59 90 0.0 1.0 0.00 0.00 0.00 50 1012.7
20260507224508 59 70 2.0 2.0 0.00 0.00 0.00 52 1012.7
20260507224005 58 79 0.0 2.0 0.00 0.00 0.00 51 1012.5
20260507223501 59 28 2.0 3.0 0.00 0.00 0.00 51 1012.7
20260507222958 59 99 0.0 3.0 0.00 0.00 0.00 51 1012.7
20260507222455 60 60 1.0 4.0 0.00 0.00 0.00 50 1012.5
20260507221951 60 38 3.0 3.0 0.00 0.00 0.00 50 1012.9
20260507221448 60 97 0.0 2.0 0.00 0.00 0.00 50 1012.7
20260507220945 60 82 0.0 2.0 0.00 0.00 0.00 51 1012.7
20260507220442 60 90 0.0 3.0 0.00 0.00 0.00 50 1012.8
20260507215939 60 49 0.0 3.0 0.00 0.00 0.00 53 1012.9
20260507215435 60 81 0.0 1.0 0.00 0.00 0.00 51 1012.7
20260507214933 60 74 1.0 1.0 0.00 0.00 0.00 50 1012.9
20260507214431 60 120 0.0 3.0 0.00 0.00 0.00 52 1013.1
20260507213926 59 69 0.0 3.0 0.00 0.00 0.00 50 1012.9
20260507213422 59 114 0.0 3.0 0.00 0.00 0.00 51 1013.2
20260507212919 60 90 1.0 3.0 0.00 0.00 0.00 50 1013.1
20260507212415 60 98 0.0 2.0 0.00 0.00 0.00 50 1012.8
20260507211912 60 125 2.0 2.0 0.00 0.00 0.00 50 1012.9
20260507211408 60 90 0.0 2.0 0.00 0.00 0.00 51 1013.0
20260507210905 61 90 0.0 3.0 0.00 0.00 0.00 54 1012.9
20260507210403 60 99 2.0 2.0 0.00 0.00 0.00 51 1012.6